Stündliche Wetter Abazivka

Heute, 23 Juni, Mittwoch

Zeit Temperatur Niederschläge Wind Luftdruck Luftfeuchtigkeit
00:00 +22°C° 0 mm 4 m/S 747 mmHg 78%
01:00 +22°C° 0 mm 4 m/S 747 mmHg 79%
02:00 +22°C° 0 mm 4 m/S 747 mmHg 79%
03:00 +22°C° 0 mm 4 m/S 747 mmHg 80%
04:00 +22°C° 0 mm 4 m/S 747 mmHg 80%
05:00 +22°C° 0 mm 3 m/S 747 mmHg 80%
06:00 +23°C° 0 mm 4 m/S 747 mmHg 77%
07:00 +25°C° 0 mm 4 m/S 747 mmHg 73%
08:00 +26°C° 0 mm 4 m/S 748 mmHg 70%
09:00 +27°C° 0 mm 5 m/S 748 mmHg 67%
10:00 +28°C° 0 mm 5 m/S 748 mmHg 64%
11:00 +29°C° 0 mm 5 m/S 748 mmHg 61%
12:00 +29°C° 0 mm 5 m/S 748 mmHg 61%
13:00 +30°C° 0 mm 5 m/S 748 mmHg 62%
14:00 +30°C° 0 mm 4 m/S 749 mmHg 63%
15:00 +30°C° 0 mm 4 m/S 749 mmHg 65%
16:00 +30°C° 0 mm 3 m/S 749 mmHg 67%
17:00 +30°C° 0 mm 3 m/S 749 mmHg 69%
18:00 +28°C° 0 mm 3 m/S 749 mmHg 72%
19:00 +27°C° 0 mm 3 m/S 749 mmHg 74%
20:00 +26°C° 0 mm 3 m/S 749 mmHg 77%
21:00 +25°C° 0 mm 3 m/S 749 mmHg 78%
22:00 +24°C° 0 mm 3 m/S 749 mmHg 80%
23:00 +22°C° 0 mm 3 m/S 749 mmHg 82%

Morgen, 24 Juni, Donnerstag

Zeit Temperatur Niederschläge Wind Luftdruck Luftfeuchtigkeit
00:00 +22°C° 0 mm 3 m/S 749 mmHg 84%
01:00 +22°C° 0 mm 3 m/S 749 mmHg 86%
02:00 +22°C° 0 mm 3 m/S 749 mmHg 88%
03:00 +22°C° 0 mm 3 m/S 749 mmHg 87%
04:00 +22°C° 0 mm 3 m/S 749 mmHg 86%
05:00 +22°C° 0 mm 3 m/S 749 mmHg 85%
06:00 +25°C° 0 mm 4 m/S 749 mmHg 79%
07:00 +26°C° 0 mm 4 m/S 749 mmHg 72%
08:00 +28°C° 0 mm 5 m/S 749 mmHg 65%
09:00 +29°C° 0 mm 5 m/S 749 mmHg 61%
10:00 +30°C° 0 mm 5 m/S 749 mmHg 56%
11:00 +32°C° 0 mm 6 m/S 749 mmHg 52%
12:00 +32°C° 0 mm 6 m/S 749 mmHg 53%
13:00 +32°C° 0 mm 5 m/S 749 mmHg 53%
14:00 +33°C° 0 mm 5 m/S 749 mmHg 54%
15:00 +32°C° 0 mm 5 m/S 749 mmHg 59%
16:00 +29°C° 0 mm 4 m/S 749 mmHg 64%
17:00 +28°C° 0 mm 3 m/S 749 mmHg 69%
18:00 +28°C° 0 mm 3 m/S 749 mmHg 71%
19:00 +27°C° 0 mm 3 m/S 749 mmHg 74%
20:00 +26°C° 0 mm 3 m/S 748 mmHg 77%
21:00 +25°C° 0 mm 3 m/S 748 mmHg 79%
22:00 +25°C° 0 mm 3 m/S 748 mmHg 81%
23:00 +24°C° 0 mm 2 m/S 748 mmHg 83%

übermorgen, 25 Juni, Freitag

Zeit Temperatur Niederschläge Wind Luftdruck Luftfeuchtigkeit
00:00 +24°C° 0 mm 2 m/S 748 mmHg 83%
01:00 +24°C° 0 mm 2 m/S 748 mmHg 83%
02:00 +23°C° 0 mm 2 m/S 748 mmHg 83%
03:00 +23°C° 0 mm 2 m/S 748 mmHg 84%
04:00 +23°C° 0 mm 2 m/S 748 mmHg 85%
05:00 +24°C° 0 mm 2 m/S 748 mmHg 86%
06:00 +25°C° 0 mm 3 m/S 748 mmHg 81%
07:00 +27°C° 0 mm 3 m/S 748 mmHg 75%
08:00 +28°C° 0 mm 3 m/S 748 mmHg 69%
09:00 +30°C° 0 mm 4 m/S 748 mmHg 64%
10:00 +32°C° 0 mm 4 m/S 748 mmHg 59%
11:00 +33°C° 0 mm 4 m/S 748 mmHg 53%
12:00 +33°C° 0 mm 4 m/S 748 mmHg 56%
13:00 +33°C° 0 mm 4 m/S 748 mmHg 58%
14:00 +33°C° 0 mm 4 m/S 748 mmHg 60%
15:00 +32°C° 0 mm 4 m/S 747 mmHg 62%
16:00 +30°C° 0 mm 3 m/S 747 mmHg 64%
17:00 +29°C° 0 mm 3 m/S 747 mmHg 66%
18:00 +28°C° 0 mm 3 m/S 746 mmHg 70%
19:00 +27°C° 0 mm 3 m/S 746 mmHg 74%
20:00 +26°C° 0 mm 3 m/S 746 mmHg 78%
21:00 +26°C° 0 mm 3 m/S 746 mmHg 81%
22:00 +25°C° 0 mm 3 m/S 746 mmHg 83%
23:00 +25°C° 0 mm 3 m/S 747 mmHg 85%

26 Juni, Samstag

Zeit Temperatur Niederschläge Wind Luftdruck Luftfeuchtigkeit
00:00 +24°C° 0 mm 3 m/S 746 mmHg 87%
01:00 +24°C° 0 mm 3 m/S 746 mmHg 89%
02:00 +22°C° 0 mm 3 m/S 746 mmHg 91%
03:00 +23°C° 0 mm 2 m/S 746 mmHg 91%
04:00 +24°C° 0 mm 2 m/S 746 mmHg 90%
05:00 +24°C° 0 mm 2 m/S 746 mmHg 90%
06:00 +26°C° 0 mm 3 m/S 746 mmHg 83%
07:00 +27°C° 0 mm 3 m/S 746 mmHg 76%
08:00 +29°C° 0 mm 3 m/S 746 mmHg 69%
09:00 +30°C° 0 mm 3 m/S 746 mmHg 65%
10:00 +31°C° 0 mm 3 m/S 746 mmHg 60%
11:00 +34°C° 0 mm 3 m/S 746 mmHg 56%
12:00 +34°C° 0 mm 4 m/S 746 mmHg 54%
13:00 +35°C° 0 mm 4 m/S 746 mmHg 51%
14:00 +35°C° 0 mm 4 m/S 746 mmHg 49%
15:00 +35°C° 0 mm 4 m/S 746 mmHg 52%
16:00 +34°C° 0 mm 4 m/S 745 mmHg 56%
17:00 +34°C° 0 mm 4 m/S 745 mmHg 59%
18:00 +31°C° 0.1 mm 3 m/S 745 mmHg 65%
19:00 +28°C° 0.1 mm 3 m/S 745 mmHg 70%
20:00 +26°C° 0.1 mm 3 m/S 745 mmHg 76%
21:00 +26°C° 0.2 mm 3 m/S 745 mmHg 78%
22:00 +25°C° 0.2 mm 2 m/S 745 mmHg 80%
23:00 +24°C° 0.2 mm 2 m/S 745 mmHg 82%

27 Juni, Sonntag

Zeit Temperatur Niederschläge Wind Luftdruck Luftfeuchtigkeit
00:00 +24°C° 2.3 mm 3 m/S 745 mmHg 86%
01:00 +22°C° 2.3 mm 3 m/S 745 mmHg 90%
02:00 +21°C° 2.3 mm 4 m/S 745 mmHg 94%
03:00 +21°C° 0.7 mm 4 m/S 745 mmHg 94%
04:00 +21°C° 0.7 mm 3 m/S 746 mmHg 94%
05:00 +21°C° 0.7 mm 3 m/S 746 mmHg 94%
06:00 +24°C° 0.2 mm 3 m/S 745 mmHg 89%
07:00 +26°C° 0.2 mm 4 m/S 745 mmHg 83%
08:00 +27°C° 0.2 mm 4 m/S 745 mmHg 78%
09:00 +29°C° 0 mm 4 m/S 745 mmHg 72%
10:00 +30°C° 0 mm 4 m/S 745 mmHg 66%
11:00 +33°C° 0 mm 4 m/S 745 mmHg 60%
12:00 +33°C° 0.2 mm 4 m/S 745 mmHg 58%
13:00 +34°C° 0.2 mm 3 m/S 745 mmHg 57%
14:00 +34°C° 0.2 mm 3 m/S 745 mmHg 55%
15:00 +33°C° 0.8 mm 3 m/S 744 mmHg 61%
16:00 +30°C° 0.8 mm 4 m/S 744 mmHg 67%
17:00 +29°C° 0.8 mm 4 m/S 744 mmHg 73%
18:00 +27°C° 1.9 mm 5 m/S 745 mmHg 80%
19:00 +23°C° 1.9 mm 6 m/S 745 mmHg 87%
20:00 +21°C° 1.9 mm 7 m/S 745 mmHg 94%
21:00 +21°C° 0.2 mm 6 m/S 745 mmHg 94%
22:00 +20°C° 0.2 mm 5 m/S 745 mmHg 94%
23:00 +20°C° 0.2 mm 4 m/S 745 mmHg 94%

28 Juni, Montag

Zeit Temperatur Niederschläge Wind Luftdruck Luftfeuchtigkeit
00:00 +20°C° 0 mm 4 m/S 745 mmHg 94%
01:00 +20°C° 0 mm 4 m/S 745 mmHg 95%
02:00 +19°C° 0 mm 5 m/S 746 mmHg 96%
03:00 +19°C° 0 mm 5 m/S 746 mmHg 95%
04:00 +19°C° 0 mm 5 m/S 746 mmHg 95%
05:00 +19°C° 0 mm 5 m/S 746 mmHg 94%
06:00 +20°C° 0 mm 5 m/S 746 mmHg 92%
07:00 +20°C° 0 mm 5 m/S 746 mmHg 90%
08:00 +21°C° 0 mm 6 m/S 746 mmHg 88%
09:00 +22°C° 0 mm 6 m/S 746 mmHg 86%
10:00 +22°C° 0 mm 6 m/S 746 mmHg 84%
11:00 +23°C° 0 mm 6 m/S 746 mmHg 83%
12:00 +23°C° 0 mm 6 m/S 746 mmHg 82%
13:00 +23°C° 0 mm 5 m/S 746 mmHg 82%
14:00 +23°C° 0 mm 5 m/S 746 mmHg 81%
15:00 +23°C° 0 mm 5 m/S 746 mmHg 82%
16:00 +23°C° 0 mm 5 m/S 746 mmHg 82%
17:00 +23°C° 0 mm 5 m/S 746 mmHg 83%
18:00 +23°C° 0 mm 5 m/S 746 mmHg 84%
19:00 +22°C° 0 mm 5 m/S 746 mmHg 85%
20:00 +21°C° 0 mm 5 m/S 746 mmHg 86%
21:00 +21°C° 0 mm 5 m/S 746 mmHg 85%
22:00 +20°C° 0 mm 5 m/S 746 mmHg 83%
23:00 +20°C° 0 mm 5 m/S 746 mmHg 82%
Mehr zeigen

Wir brauchen deine Erlaubnis

Meteoprog und unser Service Anbieter werden persönliche Daten aufbewahren, so wie Cookies, Geräte Bezeichnung oder ähnliche Technologien von deinem Gerät und Prozess, so wie Persönliche Daten Inhalte und Werbungen, genauso wie social Media und den Verkehr zu analysieren.

  • Aufbewahrung und/oder Zugang zu deiner Geräte Informationen.

    Cookies, Geräte Bezeichnung oder andere Informationen, können aufbewahrt oder Zugang zu deinem Gerät erhalten, für den Grund, der oben angegeben wird.

  • Personalisierte Werbung und Inhalte, Messungen, Einblick in das Publikum und Produkt Entwicklung.

    Werbungen und Inhalte können personalisiert werden, basierend auf ein Profil. Mehr Daten können besser personalisierte Werbungen und Inhalte hinzufügen. Werbung und Inhalte können gezeigt und gemessen werden. Einblicke über das Publikum, welche die Werbung gesehen haben und den Inhalt, können abgeleitet werden. So wie Daten können genutzt werden, um es zu verbessern oder die Benutzer Erfahrung zu verbessern das System und die Software.

Wenn du “Ich stimme zu” klickst, erlaubst du uns, die Cookies zu benutzen die Geräte Bezeichnung, den Web oder ähnliche Technologien zu benutzen. Deine Settings, können in deinem Gerät bei deinem Browser geändert werden.

Für den bestimmten Zweck, berechtigten Interessen beruhen darauf, mehr als auf den Inhalt. Du kannst mehr darüber in unseren Privaten und Cookie Politik lesen.